Terminal Aerodrome Forecast
Issued by NWS Billings, MT

Home | Current Version | Previous Version | Text Only | Print | Product List | Glossary On
Versions: 1 2 3 4 5 6 7 8 9 10 11 12 13 14 15 16 17 18 19 20 21 22 23 24 25 26 27 28 29 30
000
FTUS45 KBYZ 182320
TAFBIL
TAF
KBIL 182320Z 1900/1924 29017G28KT P6SM FEW120 BKN250
     FM190300 25012KT P6SM BKN250
     FM191100 24015G25KT P6SM SCT200=

USA.gov is the U.S. government's official web portal to all federal, state and local government web resources and services.